Flag for India Weather past 2 weeks in Ahmedabad, Gujarat, India

Now
88 °F

Haze.


Feels Like: 102 °F
Forecast: 84 / 109 °F
Wind: 6 mph from Southwest

Location: Ahmadabad Airport

Current Time: May 28, 2015 at 2:06:34 AM

Latest Report: May 28, 2015 at 1:40 AM


Visibility: 2 mi

Pressure: 29.65 "Hg

Humidity: 75%

Dew point: 79 °F

Location of AhmedabadLocation

Historic Weather in Ahmedabad — Graph

°F

Ahmedabad temperature yesterday

Maximum temperature yesterday: 111 °F (at 3:40 PM)
Minimum temperature yesterday: 84 °F (at 5:10 AM)
Average temperature yesterday: 96 °F

Past Weeks' High & Low Weather Summary

 TemperatureHumidityPressure
High117 °F (May 16, 3:40 PM)100% (May 26, 1:10 PM)29.80 "Hg (May 26, 1:10 PM)
Low50 °F (May 26, 1:10 PM)10% (May 17, 5:10 PM)29.50 "Hg (May 17, 4:10 PM)
Average97 °F44%29.67 "Hg
* Reported May 12 10:40 PM — May 27 11:10 PM, Ahmedabad, Weather by CustomWeather, © 2015

Note: Actual official high and low records may vary slightly from our data, if they occured in-between our weather recording intervals... More about our weather records

Advertising

Ahmedabad weather history for previous 24 hours

 ConditionsComfort  
Time TempWeatherWind HumidityBarometerVisibility
11:10 PM
Wed, May 27
90 °FHaze.10 mph75%29.68 "Hg2 mi
10:40 PM91 °FHaze.9 mph71%29.68 "Hg2 mi
10:10 PM93 °FHaze.10 mph67%29.68 "Hg2 mi
9:40 PM95 °FClear.9 mph60%29.65 "Hg2 mi
9:10 PM97 °FClear.9 mph56%29.65 "Hg2 mi
8:10 PM104 °FClear.7 mph31%29.62 "Hg2 mi
7:40 PM104 °FClear.8 mph31%29.62 "Hg2 mi
6:10 PM109 °FClear.8 mph25%29.59 "Hg4 mi
5:40 PM111 °FClear.8 mph24%29.59 "Hg4 mi
3:40 PM111 °FClear.3 mph27%29.62 "Hg4 mi
2:40 PM108 °FClear.7 mph34%29.65 "Hg4 mi
2:10 PM108 °FClear.6 mph34%29.68 "Hg4 mi
1:40 PM106 °FClear.14 mph36%29.68 "Hg4 mi
1:10 PM102 °FClear.10 mph42%29.71 "Hg4 mi
12:40 PM102 °FClear.9 mph42%29.71 "Hg4 mi
11:10 AM97 °FPassing clouds.7 mph50%29.77 "Hg3 mi
10:40 AM95 °FPassing clouds.9 mph53%29.77 "Hg3 mi
9:40 AM91 °FScattered clouds.9 mph63%29.77 "Hg2 mi
7:40 AM86 °FBroken clouds.12 mph70%29.77 "Hg2 mi
6:10 AM84 °FPassing clouds.9 mph74%29.74 "Hg2 mi
5:40 AM84 °FPassing clouds.10 mph79%29.74 "Hg2 mi
5:10 AM84 °FHaze.10 mph79%29.71 "Hg2 mi
4:40 AM86 °FClear.10 mph70%29.71 "Hg2 mi
4:10 AM86 °FClear.9 mph70%29.71 "Hg2 mi
2:10 AM88 °FClear.9 mph59%29.71 "Hg2 mi
Weather by CustomWeather, © 2015

See weather overviewHow to use our weather pages